North Bennington, VT

1:43 AM EST on February 08, 2016 (GMT -0500)
Morse State

Weather History for KDDH - March, 2013

Change the Weather History Date:

Sunday, March 31, 2013

  Actual Average Record
Temperature  
Mean Temperature 39 °F 39 °F  
Max Temperature 56 °F 50 °F 77 °F (2006)
Min Temperature 22 °F 28 °F 22 °F (2013)
Degree Days  
Heating Degree Days 26 26  
Month to date heating degree days 1017 984  
Since 1 July heating degree days 5801 6235  
Cooling Degree Days 0 0  
Month to date cooling degree days 0 0  
Year to date cooling degree days 0 0  
Moisture  
Dew Point 25 °F    
Average Humidity 58    
Maximum Humidity 92    
Minimum Humidity 24    
Precipitation  
Precipitation 0.22 in 0.10 in 0.74 in (2004)
Month to date precipitation 1.28 3.15  
Year to date precipitation 3.94 8.14  
Sea Level Pressure  
Sea Level Pressure 29.94 in    
Wind  
Wind Speed 8 mph (SSE)    
Max Wind Speed 24 mph    
Max Gust Speed 35 mph    
Visibility 9 miles    
Events Rain    
T = Trace of Precipitation, MM = Missing Value Source: NWS Daily Summary

Daily Weather History Graph

Daily Weather History Graph

Search for Another Location

Airport or City:

Trip Planner

Search our weather history database for the weather conditions in past years. The results will help you decide how hot, cold, wet, or windy it might be!

Date:

Astronomy

Mar. 31, 2013 Rise Set
Actual Time 6:36 AM EDT 7:18 PM EDT
Civil Twilight 6:07 AM EDT 7:46 PM EDT
Nautical Twilight 5:34 AM EDT 8:20 PM EDT
Astronomical Twilight 4:59 AM EDT 8:56 PM EDT
Moon No Moon Rise 9:15 AM EDT (3/31)
Length of Visible Light 13h 39m
Length of Day
12h 41m
Waning Gibbous, 78% of the Moon is Illuminated
Mar 31
Waning Gibbous
Apr 3
Last Quarter
Apr 10
New
Apr 18
First Quarter
Apr 25
Full

Hourly Weather History & Observations

Time (EDT) Temp. Windchill Dew Point Humidity Pressure Visibility Wind Dir Wind Speed Gust Speed Precip Events Conditions
12:54 AM 28.9 °F 23.9 °F 19.0 °F 67% 30.11 in 10.0 mi SSE 4.6 mph - N/A   Clear
1:54 AM 28.9 °F - 19.0 °F 67% 30.11 in 10.0 mi Calm Calm - N/A   Clear
2:54 AM 27.0 °F - 19.0 °F 72% 30.10 in 10.0 mi Calm Calm - N/A   Clear
3:54 AM 26.1 °F - 19.0 °F 75% 30.10 in 10.0 mi Calm Calm - N/A   Clear
4:54 AM 26.1 °F - 19.0 °F 75% 30.09 in 10.0 mi Calm Calm - N/A   Clear
5:54 AM 25.0 °F - 19.0 °F 78% 30.08 in 10.0 mi Calm Calm - N/A   Clear
6:54 AM 23.0 °F - 19.0 °F 85% 30.07 in 10.0 mi Calm Calm - N/A   Clear
7:54 AM 30.0 °F - 21.9 °F 72% 30.06 in 10.0 mi Calm Calm - N/A   Clear
8:54 AM 37.0 °F 33.3 °F 24.1 °F 59% 30.05 in 10.0 mi North 4.6 mph - N/A   Clear
9:54 AM 50.0 °F - 19.0 °F 29% 30.02 in 10.0 mi South 6.9 mph - N/A   Clear
10:54 AM 52.0 °F - 19.9 °F 28% 30.01 in 10.0 mi South 10.4 mph - N/A   Clear
11:54 AM 53.1 °F - 19.0 °F 26% 29.99 in 10.0 mi South 16.1 mph 26.5 mph N/A   Clear
12:54 PM 53.1 °F - 19.0 °F 26% 29.96 in 10.0 mi South 11.5 mph 20.7 mph N/A   Clear
1:54 PM 54.0 °F - 19.0 °F 25% 29.93 in 10.0 mi South 18.4 mph 26.5 mph N/A   Clear
2:54 PM 55.0 °F - 19.9 °F 25% 29.89 in 10.0 mi South 19.6 mph 34.5 mph N/A   Scattered Clouds
3:54 PM 55.0 °F - 21.9 °F 28% 29.87 in 10.0 mi SSE 15.0 mph 28.8 mph N/A   Mostly Cloudy
4:54 PM 52.0 °F - 23.0 °F 32% 29.86 in 10.0 mi SSE 11.5 mph 24.2 mph N/A   Overcast
5:54 PM 50.0 °F - 27.0 °F 41% 29.86 in 10.0 mi SSE 17.3 mph 26.5 mph N/A   Overcast
6:54 PM 45.0 °F 37.9 °F 35.1 °F 68% 29.87 in 7.0 mi SSE 16.1 mph 26.5 mph 0.00 in Rain Light Rain
8:54 PM 42.1 °F 34.2 °F 35.1 °F 76% 29.80 in 10.0 mi SSE 16.1 mph 25.3 mph 0.02 in   Overcast
9:54 PM 44.1 °F 39.0 °F 34.0 °F 68% 29.76 in 10.0 mi SE 9.2 mph 20.7 mph N/A   Overcast
10:40 PM 42.8 °F 34.8 °F 35.6 °F 76% 29.71 in 4.0 mi SE 17.3 mph 32.2 mph 0.05 in Rain Rain
10:54 PM 41.0 °F 35.2 °F 35.1 °F 79% 29.73 in 3.0 mi SE 9.2 mph 23.0 mph 0.09 in Rain Light Rain
11:07 PM 42.8 °F 37.0 °F 35.6 °F 76% 29.71 in 8.0 mi SE 10.4 mph 17.3 mph 0.00 in Rain Light Rain
11:54 PM 39.9 °F - 37.0 °F 89% 29.70 in 6.0 mi Calm Calm - 0.04 in Rain Light Rain